Wind_Speed
20 21 21 21 22 23 25 26 25 24 23 22 23 24 23 22 20 19 18 17 16 15 15 15 15 15 15 15 15 16 17 17 18 19 19 19 19 19 18 17 16 15 14 15 16 17 18 19 19 19 19 20 21 22 23 25 26 26 26 28 29 30 32 34 36 37 39 41 43 43 43 44 41 37 35 33 34 35 35 37 39 42 43 43 44
19 21 22 23 23 23 23 24 23 23 23 23 24 24 23 21 18 17 16 16 15 15 15 15 15 15 15 14 15 16 16 16 17 18 18 18 18 18 17 16 15 14 14 15 16 17 18 18 19 19 20 20 21 22 23 24 25 26 26 27 28 30 31 32 34 36 37 39 41 42 43 44 43 41 38 36 36 36 35 36 39 41 43 43 44
19 20 22 23 24 23 22 22 22 23 24 24 24 22 21 19 17 16 15 14 15 15 15 15 14 14 14 14 15 16 15 15 16 17 18 18 17 17 17 15 15 14 14 15 16 17 17 18 18 19 20 21 21 22 23 24 24 25 26 26 27 29 30 31 32 34 36 37 39 41 42 43 43 43 41 38 37 36 35 35 38 40 42 42 43
19 20 21 22 22 22 21 21 22 23 24 23 22 20 18 17 15 15 14 14 14 14 15 14 14 13 14 14 15 15 14 14 15 16 16 17 17 16 15 15 14 14 14 14 15 16 17 17 18 19 20 21 22 23 24 24 24 25 25 25 26 27 28 29 30 32 35 36 38 40 41 42 43 43 43 41 39 37 36 36 37 38 40 41 41
19 19 20 20 20 20 21 22 22 23 22 21 19 18 17 15 14 13 13 12 12 13 14 14 13 13 13 14 14 14 14 13 14 15 15 15 16 15 14 14 14 13 13 14 14 15 15 16 17 19 20 21 22 23 24 25 25 24 25 25 25 25 26 28 29 30 32 34 36 38 40 41 42 43 44 44 42 40 37 36 36 36 37 38 39
19 19 19 19 20 20 21 21 22 21 20 19 17 16 16 14 13 13 12 11 11 12 13 14 13 12 12 13 14 13 12 13 13 14 15 14 14 14 14 14 13 13 13 13 13 13 14 15 16 18 19 19 21 22 23 24 25 24 25 25 25 25 25 26 27 28 29 32 33 35 37 39 40 42 43 44 44 42 38 36 35 35 35 35 36
19 19 19 20 20 21 21 21 20 19 18 17 16 15 14 13 12 12 12 10 10 11 13 13 13 12 11 12 13 13 12 12 12 12 13 14 14 13 13 13 13 13 12 12 12 12 13 14 15 16 16 17 18 20 22 23 24 24 25 25 25 25 24 24 25 26 27 29 31 33 34 36 38 40 41 43 43 43 41 38 35 35 34 33 34
19 20 20 21 21 20 20 19 17 17 16 15 14 13 12 11 10 10 11 10 10 11 12 13 12 11 10 11 12 12 11 11 11 11 12 13 13 13 13 12 12 12 11 12 11 11 11 12 13 14 14 14 15 17 19 21 22 23 23 25 25 25 24 24 24 24 25 26 28 30 32 34 35 37 39 41 42 43 42 40 37 35 33 32 31
20 21 21 20 19 18 17 16 15 14 14 13 13 12 11 10 9 9 9 9 9 10 11 12 11 10 10 11 11 11 10 10 10 10 11 11 12 12 11 11 12 11 10 11 11 9 9 10 11 11 12 12 13 14 16 18 20 21 22 23 24 24 24 24 24 24 24 24 25 27 29 30 33 35 37 38 40 41 42 41 39 36 33 32 31
20 20 19 18 17 15 14 13 12 11 11 11 11 10 10 10 9 9 8 9 9 9 10 10 10 10 10 10 11 11 10 9 9 9 9 10 11 11 9 9 10 10 10 9 9 9 8 8 9 10 10 10 11 12 14 16 18 19 20 22 23 24 24 24 24 23 23 22 23 23 25 27 29 32 34 35 37 39 39 40 40 38 35 32 31
18 17 16 15 14 13 12 11 10 10 9 9 10 10 9 9 8 8 8 8 8 9 10 10 9 9 10 10 11 10 10 9 8 9 9 9 10 10 9 8 8 9 9 8 7 8 7 7 8 8 9 9 10 11 12 14 16 18 19 21 22 23 24 24 24 23 22 21 21 21 22 24 26 28 30 32 34 36 37 38 39 38 37 34 32
15 15 14 13 13 12 11 10 9 9 9 9 9 9 8 8 7 7 7 7 7 7 9 9 9 10 10 10 10 10 9 8 7 8 9 9 9 10 9 7 7 7 9 8 7 7 6 6 7 7 7 8 9 9 10 12 14 16 18 19 20 21 22 23 23 23 22 20 20 20 20 21 23 24 26 28 31 32 34 35 37 37 37 36 34
12 12 11 11 11 10 9 9 8 8 8 7 7 8 7 6 6 6 6 5 5 6 7 8 9 9 10 10 9 9 8 7 7 7 8 8 9 9 8 7 8 7 7 8 7 6 4 3 4 5 6 6 7 8 9 11 12 14 16 17 17 18 19 20 21 21 21 20 19 19 19 19 20 21 23 25 27 29 31 33 34 35 36 36 35
9 8 8 8 8 8 8 7 7 6 6 6 6 6 6 6 5 5 5 5 5 6 6 8 8 8 9 9 7 7 8 8 7 7 8 8 8 8 7 7 8 8 7 7 4 4 3 1 3 2 3 4 5 6 7 8 10 12 13 14 15 16 17 18 19 20 20 20 19 18 17 17 18 19 20 21 23 25 28 30 31 32 33 34 35
6 6 5 5 5 5 5 5 5 5 5 5 5 5 5 5 5 4 5 5 5 6 6 7 8 8 7 7 7 6 8 9 8 8 8 8 7 6 5 5 6 6 7 5 3 2 3 3 5 4 2 2 4 4 4 5 7 8 10 11 12 14 15 16 17 18 19 19 19 18 17 16 16 17 18 19 20 22 24 26 28 29 30 32 33
4 4 3 3 3 3 3 3 3 3 3 4 5 5 5 5 4 4 4 5 5 6 7 7 8 8 6 6 6 6 6 7 8 9 9 8 7 6 5 4 4 3 4 4 4 5 5 5 5 5 6 6 4 3 2 3 4 5 8 9 11 12 13 14 15 16 17 18 18 18 17 16 15 16 16 17 18 19 20 22 24 26 27 29 30
3 3 3 2 2 2 2 2 2 2 3 4 5 5 5 5 4 4 4 4 4 5 6 7 7 7 6 5 5 5 6 6 7 8 8 7 6 6 5 3 3 2 2 3 3 4 5 5 4 4 4 5 5 5 4 2 2 4 6 8 9 11 12 13 14 15 16 17 17 17 17 16 15 15 15 16 16 17 18 19 21 23 24 26 27
3 2 2 2 2 2 1 2 2 2 2 3 4 5 5 5 4 4 4 4 4 4 5 6 7 6 5 5 5 5 6 7 7 8 7 7 6 6 5 3 2 2 1 2 4 4 4 4 3 3 3 4 7 8 6 4 4 3 4 7 8 10 11 11 12 13 14 15 15 16 16 16 16 15 15 15 16 16 17 17 18 20 21 23 24
2 2 2 2 2 2 2 2 2 2 2 3 4 5 5 5 5 4 4 4 4 4 5 5 6 5 5 4 5 5 5 6 7 7 7 7 6 5 4 4 3 2 2 4 5 5 5 4 2 3 4 5 7 8 8 7 6 5 2 5 7 8 9 10 11 12 13 13 14 14 15 16 16 16 15 15 15 16 16 16 17 18 19 20 22
1 1 1 2 2 3 3 3 3 3 3 4 4 5 5 5 5 4 4 4 4 4 5 5 5 5 4 4 4 3 4 5 5 6 6 6 6 5 5 5 4 3 3 5 6 7 7 6 2 2 3 3 5 6 7 6 6 6 3 4 5 7 8 9 10 11 11 12 12 13 14 15 15 16 16 16 15 15 15 16 16 17 17 18 19
1 0 0 2 3 3 3 4 4 4 4 5 5 5 5 4 4 4 4 3 4 4 5 5 5 5 5 4 3 3 3 4 4 5 5 5 5 5 6 6 6 4 5 5 6 7 8 8 5 3 3 4 3 5 7 4 3 6 5 3 5 6 8 9 9 10 11 11 11 12 12 13 14 15 16 16 16 16 15 15 15 16 16 17 17
1 0 1 2 3 3 4 4 4 4 4 5 5 5 5 4 4 3 3 3 3 4 4 5 5 5 5 5 4 4 4 4 4 4 4 5 6 6 6 7 6 5 6 6 5 7 8 9 7 3 2 4 4 4 6 4 4 5 5 3 5 6 7 8 9 10 10 10 10 11 12 13 14 14 15 16 16 16 15 15 14 15 15 16 17
2 2 1 2 3 3 4 4 4 4 4 5 5 5 5 4 3 3 3 3 3 3 4 4 5 5 6 5 5 4 4 4 4 4 4 5 6 6 6 6 6 5 7 7 5 6 8 9 8 5 3 4 4 4 5 6 5 3 3 2 4 5 6 7 8 9 9 9 9 10 11 12 13 14 14 15 16 15 15 14 14 13 14 14 15
3 3 3 2 3 3 3 4 4 4 4 4 4 4 4 4 3 3 3 3 3 3 3 3 4 5 6 5 5 5 4 5 5 5 5 5 6 6 5 6 6 6 6 6 6 7 8 8 8 8 7 6 7 5 4 4 4 2 2 3 3 4 5 6 8 8 8 8 8 9 10 11 12 13 13 14 15 15 15 14 13 13 12 13 13
4 4 3 3 3 3 3 3 3 3 4 4 4 4 4 4 4 3 3 3 3 3 2 2 2 3 4 5 5 5 5 5 5 5 5 5 6 6 5 6 6 5 6 6 6 8 9 7 6 7 6 6 6 5 4 5 5 3 2 2 3 4 4 5 7 7 7 7 7 8 9 10 11 12 12 13 14 15 15 14 13 13 12 12 12
5 4 4 4 3 3 3 3 3 3 3 3 4 4 4 4 4 4 4 3 3 3 2 2 2 2 2 3 4 5 5 5 5 6 6 6 6 5 5 5 4 3 5 8 8 9 11 8 5 6 6 4 5 5 5 6 5 3 1 2 2 3 4 5 5 6 6 6 7 8 9 10 11 11 12 12 13 14 14 14 14 13 12 11 11
5 5 5 5 4 4 4 4 3 3 3 3 3 3 4 4 4 4 5 5 4 4 3 3 3 3 3 2 3 4 4 5 5 5 6 5 5 5 5 5 5 4 4 6 7 9 11 10 7 6 6 5 4 4 4 4 3 1 1 2 2 3 3 3 4 5 5 6 7 8 9 10 10 11 11 11 12 13 13 13 14 13 13 12 11
6 6 5 5 5 5 5 5 5 4 3 3 3 3 3 4 4 5 5 5 5 5 4 4 3 3 3 3 3 3 4 4 4 4 5 4 4 5 5 5 6 6 5 6 6 7 10 11 9 7 6 6 5 3 3 3 3 2 2 3 3 2 1 2 3 4 5 6 7 8 9 9 10 10 11 11 11 12 12 12 13 13 13 13 12
8 7 6 6 6 6 6 6 6 5 5 4 4 3 4 4 4 5 5 5 6 5 5 5 4 4 4 4 4 4 4 5 4 4 4 4 4 4 5 5 5 6 6 6 6 7 8 9 8 6 6 5 5 4 4 3 2 2 3 4 3 1 1 1 2 3 4 5 6 7 8 8 9 9 10 10 10 11 11 11 12 12 12 13 13
9 8 7 7 7 7 8 8 8 7 7 6 6 5 5 5 5 5 5 6 6 6 5 5 5 4 4 5 5 5 5 6 5 5 4 4 4 5 5 5 5 6 6 7 7 7 7 7 7 6 6 5 6 6 6 5 4 3 3 3 2 1 2 2 2 2 3 4 5 6 7 7 8 8 9 9 9 9 9 10 10 10 11 11 11
9 9 8 8 8 9 9 9 9 9 9 8 8 7 6 6 5 5 5 6 6 6 6 5 5 5 5 5 5 5 6 6 6 6 5 5 5 6 6 6 6 6 6 6 7 7 7 6 6 6 6 6 6 7 7 6 5 3 2 1 1 2 3 2 2 2 2 4 5 6 8 8 8 8 8 8 8 8 8 8 8 8 9 9 9
11 10 9 9 9 9 9 9 10 10 10 10 9 9 8 7 6 6 6 6 6 7 6 6 5 5 5 6 6 6 6 6 6 6 6 6 7 7 7 7 7 7 7 7 7 7 7 6 6 7 7 7 7 7 7 6 5 4 3 2 2 2 2 1 1 2 3 5 6 7 8 8 8 7 7 7 7 7 7 7 6 7 7 7 8
12 11 11 10 10 10 10 10 10 10 11 10 10 9 9 9 8 8 8 7 7 7 7 6 6 6 6 6 6 6 6 6 6 6 6 6 6 7 7 7 7 7 7 7 7 7 7 7 8 8 8 8 7 7 7 6 5 5 4 4 3 2 2 2 2 3 4 6 7 8 7 7 7 6 5 6 6 7 6 6 6 6 6 6 7
14 13 12 11 11 11 10 10 10 10 10 10 10 9 10 10 9 9 9 8 8 8 8 7 6 6 6 6 6 6 6 6 6 6 6 6 6 6 6 6 6 6 6 6 6 6 6 6 7 7 8 8 7 6 7 6 5 5 5 5 5 4 4 3 3 4 5 6 7 7 6 6 6 5 4 4 5 6 6 6 6 5 6 6 6
15 14 14 13 12 12 11 11 11 11 10 11 11 11 11 11 10 10 10 10 9 10 9 8 7 7 7 7 6 6 6 6 6 6 6 6 6 6 6 6 5 6 6 5 5 5 4 5 6 7 7 7 6 6 7 6 5 5 5 6 6 6 6 6 5 5 6 7 7 6 6 6 6 5 4 4 5 5 5 5 6 6 6 5 5
16 16 15 14 14 14 13 12 11 11 11 11 11 12 12 11 11 11 11 11 11 11 10 9 9 9 8 8 7 7 7 6 7 7 6 6 6 6 6 6 6 6 6 5 5 5 4 4 5 6 7 6 6 7 7 7 6 7 7 7 8 9 8 9 9 7 7 7 7 6 6 6 7 6 5 4 5 5 5 5 5 6 6 5 4
17 17 16 16 15 15 14 13 13 12 12 12 13 13 13 13 13 13 12 12 12 12 11 10 10 10 9 9 8 8 8 7 7 7 6 6 6 5 5 5 6 6 6 6 5 5 4 4 5 6 6 6 6 7 7 7 7 8 8 9 10 11 11 11 11 10 9 8 7 7 7 7 7 7 7 6 5 6 6 5 5 5 5 5 4
18 18 18 17 17 16 15 15 14 14 13 13 14 14 14 14 14 14 14 13 13 13 12 12 11 11 10 10 9 9 9 8 8 7 6 5 5 5 5 5 5 5 5 5 5 5 5 5 5 5 6 6 7 7 7 7 7 8 9 9 9 10 11 11 11 11 11 10 9 8 8 8 8 8 8 8 7 6 6 6 6 5 5 5 5
19 19 19 19 19 18 17 16 16 16 15 15 15 15 16 16 15 15 15 15 14 14 14 13 13 12 12 11 10 9 9 9 8 7 7 6 6 6 6 6 6 6 6 6 6 6 6 6 6 6 7 7 7 7 7 8 8 9 9 10 10 10 11 11 11 12 12 12 11 11 10 9 8 9 9 10 10 9 8 7 7 7 7 7 7
21 21 21 20 21 20 20 19 18 17 17 16 16 17 18 17 17 17 16 16 16 16 15 15 15 14 14 13 12 11 10 10 9 9 9 9 8 9 9 9 9 9 9 9 9 9 9 8 8 8 8 8 9 9 9 9 10 10 11 11 12 12 12 13 13 13 13 12 12 12 11 9 8 9 8 9 11 11 10 10 10 10 10 9 9
22 22 22 22 22 22 22 21 20 19 18 17 17 19 20 19 18 18 18 18 17 17 17 17 17 17 16 15 13 12 12 11 11 11 11 11 11 11 11 11 11 11 12 12 11 11 11 11 10 10 10 10 10 10 10 10 10 11 12 12 12 12 13 14 14 12 11 12 12 12 11 9 8 9 9 9 10 12 12 13 13 12 12 12 12
24 24 24 23 23 23 23 23 23 22 21 20 20 22 21 20 19 19 19 19 19 19 19 19 19 18 17 16 15 14 13 13 12 13 13 13 13 12 12 12 13 13 13 13 13 13 13 13 13 12 12 12 11 10 10 10 10 11 11 12 12 12 12 13 15 14 11 10 11 13 13 11 9 10 10 10 11 12 13 15 15 15 15 15 15
25 26 26 25 25 25 25 25 24 24 24 24 24 23 23 21 21 21 20 20 21 20 20 20 20 19 18 17 16 15 14 14 14 15 15 14 14 14 14 14 14 14 14 14 14 14 14 14 15 14 14 13 13 12 11 11 11 11 12 12 12 13 13 13 15 16 15 12 10 11 14 14 11 10 11 12 12 13 15 16 17 18 17 17 18
24 25 26 27 27 27 26 26 26 26 27 27 26 26 25 24 23 22 22 22 22 22 22 21 20 20 19 18 17 16 15 15 15 16 16 15 15 15 15 15 15 15 15 15 15 15 14 15 15 16 16 15 15 15 14 12 12 12 13 13 14 14 15 15 15 17 19 17 13 11 14 17 15 12 12 13 12 13 15 16 18 19 19 19 19
24 24 25 27 29 29 29 28 28 28 28 28 28 28 28 26 25 25 24 23 23 23 23 22 21 21 20 19 18 17 17 16 16 17 16 16 16 16 16 16 15 15 15 15 15 15 15 15 15 16 17 16 16 17 17 15 14 14 14 15 16 16 16 17 16 17 20 20 17 14 15 18 18 16 15 15 14 13 15 16 18 19 20 20 20
26 26 27 28 29 30 31 31 32 32 31 30 30 29 30 29 28 27 26 25 24 24 24 23 22 21 20 20 20 19 18 18 17 17 17 17 17 17 16 16 16 15 15 15 16 16 16 16 16 17 18 17 17 18 19 18 18 17 17 17 18 18 18 18 18 19 21 21 19 16 16 18 20 20 19 19 17 16 16 16 18 19 20 21 21
30 30 30 31 32 31 32 33 33 32 32 33 31 31 32 32 30 30 29 28 26 25 25 24 23 22 21 21 22 21 20 19 20 20 20 20 19 19 18 18 17 17 16 17 17 17 18 19 18 19 20 19 19 20 20 20 20 20 19 19 19 20 18 18 19 20 20 20 20 18 16 18 21 21 21 21 20 19 20 19 18 18 19 20 21
34 33 33 34 34 32 32 33 32 32 34 34 33 34 35 34 32 31 31 30 28 27 26 25 24 23 22 23 23 23 21 21 23 23 22 22 21 20 20 20 19 19 18 19 20 20 21 21 20 21 22 22 22 22 22 22 22 21 21 21 22 21 19 18 19 21 21 21 21 19 17 18 20 22 22 22 22 21 22 23 21 20 19 20 21
35 36 35 34 34 32 33 34 34 35 37 37 37 38 38 37 35 33 32 31 29 27 27 27 26 25 23 24 25 24 23 24 25 25 24 23 22 22 22 22 21 21 22 22 23 23 23 23 22 23 24 24 24 23 23 24 24 23 22 22 23 23 21 19 20 21 22 23 23 22 20 20 21 21 22 23 23 22 23 24 24 23 23 22 22
36 37 36 34 33 33 34 36 39 40 41 40 40 41 41 40 38 35 32 31 29 27 26 28 29 27 26 28 28 26 25 26 27 27 25 24 24 24 24 24 24 24 24 25 25 25 25 25 25 25 26 27 26 25 25 25 26 25 24 23 23 23 22 22 21 21 22 25 25 24 23 24 23 22 22 22 23 24 24 23 24 25 25 25 24
33 35 34 32 33 33 34 37 42 44 44 45 44 41 41 42 40 36 34 33 31 27 27 31 32 29 28 30 29 28 28 28 29 29 28 27 26 26 26 27 27 27 27 27 27 27 27 28 27 28 28 29 28 27 27 27 27 27 26 25 24 23 23 23 24 23 24 27 27 26 25 26 26 24 24 23 23 25 26 26 25 26 26 26 26
Wind_Direction
109 110 112 114 115 117 122 125 128 130 131 133 134 136 136 138 139 137 136 136 137 137 135 132 127 119 114 112 110 108 107 110 115 119 120 118 115 111 107 104 100 96 91 86 81 77 73 69 65 63 60 57 55 54 52 52 52 51 49 47 46 45 46 46 45 43 40 39 39 40 38 37 39 39 38 41 43 42 36 35 38 41 43 45 48
106 110 113 115 117 121 126 129 131 133 134 135 136 135 135 136 137 136 136 138 139 137 133 130 126 119 114 112 110 107 108 112 117 121 122 120 118 114 110 107 102 98 92 88 84 80 77 72 69 65 62 59 56 54 53 52 52 51 49 47 46 45 45 45 45 45 42 41 40 40 40 38 38 39 39 40 43 44 41 38 40 43 46 48 51
108 111 115 119 122 126 128 129 132 134 134 135 134 133 133 134 135 136 139 141 140 136 132 130 126 119 114 113 110 107 108 112 117 122 124 123 120 116 113 109 104 99 95 91 87 84 80 75 71 67 64 61 58 56 54 52 51 51 50 48 46 45 45 45 45 46 45 43 42 41 41 40 39 40 41 41 44 46 45 44 43 44 48 51 54
111 113 116 119 121 124 126 127 129 131 132 133 131 131 131 134 137 139 142 142 139 134 130 128 124 118 115 114 110 108 110 113 117 122 125 125 123 120 117 112 107 103 99 95 92 88 84 79 73 69 67 63 60 58 56 54 51 50 50 49 47 46 46 45 44 44 45 43 42 41 41 40 40 41 42 42 44 45 47 47 47 46 48 52 56
116 116 118 120 121 123 125 126 128 130 129 129 129 131 134 137 139 139 140 139 136 133 130 127 122 118 117 115 111 108 111 115 118 123 126 128 126 123 120 115 111 108 105 101 97 93 88 82 77 72 69 65 62 60 57 55 52 49 50 50 48 46 45 46 44 43 44 44 43 42 41 40 40 40 42 43 44 45 46 48 51 50 50 52 56
118 119 121 122 124 125 126 128 128 128 128 129 133 135 137 139 138 136 133 133 134 132 129 126 122 119 118 115 113 111 113 117 120 123 128 130 128 126 124 121 118 114 111 108 104 99 93 87 81 76 71 67 64 61 58 55 53 50 48 49 49 47 45 45 45 43 43 44 45 44 42 41 40 40 41 42 44 45 46 48 52 54 54 54 56
120 121 124 125 127 128 129 129 129 131 132 134 137 136 134 133 131 130 129 132 135 132 128 125 124 121 119 115 115 115 115 119 121 123 129 133 133 132 131 128 124 121 119 117 113 107 100 93 86 81 75 70 66 63 59 56 53 50 48 48 48 48 46 45 46 44 42 43 45 45 44 43 42 42 42 42 44 45 46 47 50 54 57 57 58
121 122 124 125 127 128 128 130 132 134 134 133 131 130 129 126 125 125 130 135 137 134 129 125 123 120 120 119 119 119 118 119 122 126 131 136 139 139 137 135 132 131 128 122 119 114 106 98 91 85 79 73 69 65 62 58 54 52 49 48 48 48 47 46 45 45 43 43 43 45 44 43 43 43 43 43 44 45 46 47 49 52 56 59 61
122 122 123 124 125 126 127 130 132 132 132 132 127 127 131 128 127 128 132 136 134 133 128 124 123 120 122 123 122 123 121 121 123 128 134 140 144 141 141 142 140 140 136 127 121 116 108 101 93 86 78 71 68 65 63 60 56 53 49 47 46 46 46 46 45 44 44 43 43 44 45 44 43 44 44 44 45 45 46 47 49 51 54 58 61
122 122 123 124 124 124 125 127 129 127 128 131 129 132 137 132 132 131 129 131 132 133 127 123 125 125 126 125 125 127 125 123 124 130 138 146 144 139 143 151 148 143 138 134 126 120 114 105 96 87 77 68 65 63 61 60 57 54 50 46 44 43 43 44 44 43 43 43 44 45 46 46 45 44 45 45 46 47 47 47 49 50 53 56 60
122 123 123 124 123 124 125 126 129 128 130 138 140 140 138 132 133 128 121 126 134 136 130 128 129 130 132 131 131 132 132 130 130 135 144 149 141 141 153 160 155 148 143 148 139 129 129 118 105 93 81 72 66 61 59 58 56 53 51 46 43 41 40 40 40 41 42 42 43 45 47 48 48 47 46 47 48 49 48 48 49 50 52 54 58
126 127 127 127 126 126 126 126 131 134 137 145 144 137 135 132 134 128 119 124 136 141 139 136 136 138 139 138 138 137 134 134 137 140 146 150 144 147 159 158 159 160 154 159 153 142 144 129 117 109 94 82 75 66 59 58 57 54 52 48 44 40 38 37 37 37 39 40 41 43 46 49 50 49 49 48 48 50 50 50 50 51 52 53 56
130 130 130 129 127 126 125 126 127 129 132 136 132 130 132 130 131 133 132 134 143 149 146 143 144 147 147 148 147 138 132 138 144 142 145 151 148 148 154 159 170 176 172 174 164 151 146 124 130 132 114 97 87 78 64 59 58 56 53 49 46 41 37 36 35 34 35 37 39 41 44 47 51 51 51 50 49 50 51 51 51 52 52 53 54
129 129 128 128 127 126 127 124 121 117 116 117 119 124 129 127 132 141 143 149 152 151 153 151 151 154 155 155 148 138 139 146 148 143 146 153 153 151 152 164 177 178 189 198 172 148 145 148 239 219 127 109 93 83 73 65 59 59 57 50 47 43 37 34 33 33 32 32 35 38 41 43 48 51 53 53 51 50 51 52 53 52 53 54 55
132 130 129 128 126 127 125 120 117 112 107 108 115 123 129 132 143 147 141 149 154 154 160 158 154 158 164 159 145 140 145 146 145 145 149 153 155 155 150 167 184 180 190 198 165 182 205 216 250 277 338 40 63 60 62 70 61 59 60 54 49 43 38 34 31 30 29 29 29 32 37 40 43 48 51 53 54 53 52 53 54 54 54 54 55
140 138 140 138 134 129 121 120 121 116 112 114 119 126 133 138 146 148 140 146 154 159 165 163 160 162 166 161 149 143 140 137 140 146 150 153 158 162 157 172 190 183 192 197 185 202 215 224 250 301 338 347 4 356 348 60 56 53 58 53 49 43 36 33 30 28 27 26 26 26 30 35 39 43 47 50 53 55 54 54 54 55 56 56 56
150 149 156 159 160 150 138 139 138 130 125 124 127 130 135 141 145 151 149 150 152 161 168 168 168 167 165 165 152 138 134 134 138 145 150 154 161 167 168 179 194 191 201 215 214 214 221 234 261 308 332 321 304 294 299 349 19 25 46 48 43 39 33 30 28 26 24 23 23 22 23 28 33 38 42 46 48 52 54 54 54 55 56 57 57
165 166 174 179 183 178 171 162 151 152 143 134 136 136 139 146 150 154 155 155 156 164 174 175 174 173 169 164 157 148 145 144 143 148 154 157 166 175 179 188 206 221 237 252 249 243 245 245 258 275 272 267 271 282 297 323 338 342 29 42 39 34 28 27 26 25 23 21 22 21 19 21 26 31 37 41 44 45 48 52 53 54 55 56 58
187 190 189 182 185 186 177 167 167 173 163 149 146 141 142 150 154 158 161 160 161 167 178 181 181 181 177 170 170 169 158 150 151 157 160 164 173 182 189 200 218 235 258 279 277 270 268 257 223 239 251 259 274 291 305 316 317 309 1 41 36 31 24 22 23 23 23 20 20 20 18 18 21 26 31 37 41 42 43 46 49 52 54 55 57
234 224 189 167 169 168 162 163 169 174 169 157 151 146 147 151 155 163 172 167 167 175 180 187 191 189 188 188 187 185 175 166 166 166 166 171 181 189 198 207 218 231 250 276 288 290 287 285 285 273 273 274 277 286 287 282 292 299 325 34 33 29 21 17 17 18 20 21 20 21 20 19 20 23 28 33 38 41 42 42 44 48 51 54 56
247 282 142 147 149 146 146 156 165 170 169 162 156 154 153 157 160 168 179 178 177 186 187 189 199 196 195 203 204 200 194 186 184 182 177 178 189 201 212 219 223 234 249 264 289 298 296 299 314 332 324 314 289 276 274 262 289 310 315 8 31 26 18 13 13 12 15 21 23 23 23 23 22 25 29 32 35 39 41 42 43 44 48 51 53
214 222 161 144 139 136 141 154 164 166 167 164 161 161 161 166 170 172 186 195 194 200 199 197 203 205 205 209 210 210 202 195 197 200 196 194 201 208 216 227 231 239 248 253 272 287 291 297 304 313 321 314 311 309 305 314 346 326 306 353 30 23 16 11 9 8 10 18 26 27 26 28 28 29 31 33 35 37 40 42 44 44 46 48 50
204 200 188 162 148 143 146 154 161 166 169 168 167 169 171 177 182 185 194 206 210 212 209 206 208 211 216 216 215 216 212 209 211 214 214 216 221 221 220 230 235 239 247 251 267 281 283 289 298 314 335 328 331 348 340 340 360 340 311 360 32 22 15 10 5 5 8 17 27 31 31 32 35 35 34 35 36 37 39 41 44 46 47 49 50
207 204 195 179 165 158 155 154 159 164 170 172 174 178 182 190 199 204 207 211 217 221 217 215 216 216 220 224 224 225 225 223 223 226 229 230 237 240 241 244 243 244 254 265 277 281 280 289 308 326 340 343 343 352 348 348 11 8 335 4 34 27 14 8 5 3 8 18 26 33 35 37 40 39 37 37 37 37 39 41 44 48 49 51 52
214 211 202 194 187 180 166 155 156 161 169 175 180 187 195 205 215 222 225 226 228 237 239 242 243 230 225 226 229 233 236 236 236 238 240 238 243 251 256 258 258 267 289 292 288 287 289 300 317 325 336 339 328 326 339 355 1 357 355 8 28 30 12 5 5 2 7 19 28 36 37 39 41 41 39 38 37 37 39 41 44 48 51 53 55
223 217 210 204 199 197 186 173 169 169 172 177 184 194 204 215 226 234 241 246 248 252 254 263 274 269 249 233 232 237 240 244 248 250 253 252 255 265 271 277 286 301 301 297 302 307 302 303 316 326 334 327 305 318 348 358 352 344 357 9 29 35 14 2 2 360 5 17 29 37 37 36 38 38 39 39 39 38 38 42 45 46 50 52 54
228 222 218 215 209 205 200 193 191 186 183 187 195 207 214 222 228 237 248 255 259 261 263 266 275 282 282 267 249 245 243 246 252 256 266 274 277 281 285 296 307 309 301 299 308 309 302 308 329 336 330 320 308 330 358 352 348 359 356 355 40 53 23 3 355 355 3 14 26 32 30 30 32 34 36 39 42 41 39 42 45 47 50 52 53
224 227 226 227 224 217 213 209 205 200 196 199 208 217 226 231 231 234 243 254 259 262 265 266 269 273 279 278 267 257 252 252 256 260 270 283 291 292 297 306 309 310 313 307 302 300 300 313 332 335 332 332 329 340 2 356 357 10 1 8 39 54 24 358 343 346 359 9 18 23 22 24 28 31 34 37 41 43 43 43 45 47 50 52 54
220 226 227 231 235 231 227 221 216 213 210 212 214 220 230 237 240 240 242 248 251 255 260 264 269 272 276 277 269 264 261 259 262 264 269 282 289 292 296 299 301 305 307 303 302 304 306 313 323 326 330 335 334 340 353 360 7 16 15 19 25 14 311 317 318 331 352 360 5 10 11 15 20 23 26 30 36 40 44 46 45 47 50 52 54
223 226 226 229 231 232 232 229 224 221 220 220 220 221 227 235 242 246 248 250 251 249 251 255 262 270 275 277 273 270 268 266 267 269 271 276 279 281 282 285 291 296 301 304 307 309 308 310 315 321 326 329 332 339 345 349 360 19 21 12 348 268 254 275 291 315 337 344 348 351 353 357 0 3 7 13 22 30 38 44 44 44 46 49 52
227 228 230 232 231 229 230 231 229 227 226 225 226 225 226 231 234 240 247 252 253 251 247 246 251 260 269 274 276 276 273 271 271 269 268 267 266 268 269 273 284 291 293 298 299 299 302 306 310 313 318 321 321 322 328 335 341 350 4 345 265 235 234 257 284 302 316 327 335 336 337 340 344 349 356 4 11 19 28 38 43 41 41 43 47
230 230 233 236 237 234 232 233 232 233 233 231 231 231 230 230 229 232 239 241 243 247 245 241 243 249 256 262 266 270 273 272 271 269 267 266 265 267 267 269 276 281 283 286 288 291 297 301 301 300 300 303 306 309 315 326 331 324 311 297 254 235 231 246 286 309 312 320 328 329 329 334 341 350 360 8 10 14 22 30 37 40 40 41 42
233 232 234 236 239 240 238 237 235 235 238 237 235 235 235 234 230 231 237 237 236 240 240 238 236 239 244 251 255 258 261 262 264 265 266 265 265 266 268 269 272 276 278 282 284 287 291 294 296 299 301 303 306 308 312 322 323 316 314 318 311 305 310 307 306 313 313 318 325 328 329 335 343 348 358 10 12 12 19 24 28 34 39 41 41
234 234 235 235 238 241 243 244 241 239 240 240 240 241 241 239 235 234 239 242 237 235 235 233 232 235 236 240 245 248 251 251 253 256 258 259 258 258 262 267 271 274 276 281 285 288 289 290 294 301 305 307 309 307 310 316 315 310 313 316 312 315 322 317 304 297 298 309 319 322 325 333 339 339 344 1 8 7 11 15 15 18 24 31 36
235 235 236 236 237 239 241 244 245 244 242 241 241 242 244 244 242 239 239 242 240 236 235 232 229 233 234 234 237 239 242 245 246 246 247 249 249 250 254 262 266 269 273 277 284 288 289 288 292 298 303 308 312 309 309 313 313 309 306 302 303 310 316 311 300 291 292 301 310 313 319 327 331 328 322 333 350 353 355 357 357 357 2 13 27
236 237 238 238 237 237 238 240 243 245 243 242 241 242 244 246 246 245 243 244 244 240 238 235 230 231 232 230 228 229 230 234 238 240 240 241 245 248 250 254 257 259 264 270 275 283 284 280 285 295 303 309 311 311 310 310 308 303 300 299 299 302 307 307 304 304 305 306 307 309 315 321 322 318 309 308 325 333 334 333 333 335 339 349 10
240 241 242 241 240 239 239 239 240 242 243 243 242 243 243 244 244 246 247 249 250 247 243 239 235 233 233 230 227 225 225 227 231 233 235 238 243 247 252 254 257 260 265 270 274 279 280 276 277 284 293 299 301 300 300 299 296 293 293 296 296 298 303 305 307 310 312 310 309 311 313 315 316 311 300 293 302 315 318 314 309 310 315 321 335
244 244 245 245 244 243 243 242 241 241 242 242 243 243 243 243 243 245 246 247 248 249 247 243 240 238 237 235 230 228 229 231 233 233 236 242 244 247 251 256 260 264 268 274 277 279 280 279 278 277 281 285 287 287 287 287 286 283 285 289 292 295 299 301 304 307 309 311 311 310 307 306 309 306 294 284 286 297 305 302 297 294 293 296 303
245 245 245 246 247 246 245 245 244 243 242 243 244 245 244 242 241 241 243 243 243 245 246 244 242 241 241 239 235 232 233 235 237 237 238 242 245 249 254 258 262 266 268 273 276 280 281 280 279 276 275 275 275 275 275 276 277 277 279 282 284 287 292 295 297 300 303 307 307 307 307 304 301 299 289 278 276 282 289 290 289 287 285 285 289
245 246 246 245 246 247 246 245 245 245 243 243 246 247 245 242 241 240 240 241 242 243 244 244 244 241 241 240 237 235 235 238 241 241 240 242 244 248 253 258 262 266 269 271 271 273 275 274 275 274 273 272 271 271 271 272 274 277 278 281 284 287 289 292 294 295 299 303 304 305 307 305 297 290 280 269 267 271 277 281 282 282 281 283 285
246 247 248 248 248 248 249 247 246 246 243 242 245 248 246 244 243 242 240 240 241 242 244 245 245 245 244 244 242 240 240 242 245 248 248 249 249 250 253 258 262 266 269 272 273 273 273 273 273 273 273 273 272 272 272 272 273 276 279 281 284 286 289 292 295 297 300 303 307 308 307 304 295 285 273 260 257 261 267 272 274 275 276 277 279
249 249 250 251 251 251 252 251 250 249 246 243 243 244 245 245 245 245 244 243 242 243 244 246 247 249 249 249 248 247 247 248 250 252 254 254 255 255 256 258 261 264 267 270 272 273 274 274 274 272 273 273 271 270 269 268 268 269 273 275 276 278 282 286 292 298 301 302 305 308 307 304 297 288 280 267 257 254 256 262 267 270 271 273 274
251 253 253 253 253 252 253 254 254 252 250 247 246 246 247 246 247 247 247 246 245 245 245 247 249 251 253 253 253 252 252 253 252 252 253 254 256 257 257 258 259 261 263 264 266 268 270 273 275 276 276 276 275 273 269 265 264 263 265 267 268 270 273 274 280 289 294 296 296 298 300 301 299 294 289 280 269 260 256 257 260 263 265 267 270
252 253 256 257 257 255 254 254 255 254 253 252 250 250 250 249 247 247 246 246 247 247 247 248 250 251 253 254 254 254 254 254 255 257 256 254 255 255 255 255 256 258 260 263 265 267 269 272 275 277 278 278 279 278 275 270 265 263 264 265 266 268 268 269 270 275 282 288 291 290 291 293 295 296 292 287 281 272 264 260 259 260 261 261 264
257 257 258 259 259 258 257 255 254 254 254 254 252 251 251 250 248 247 246 245 247 247 248 249 250 252 253 253 253 253 253 253 255 259 260 258 258 257 256 256 258 260 262 265 267 269 270 271 271 273 274 276 278 279 280 278 274 271 269 268 270 271 268 268 269 268 272 280 286 287 283 285 290 293 291 289 286 279 270 264 263 263 263 262 262
256 256 257 258 258 259 257 255 254 253 253 254 254 253 252 251 250 249 248 247 246 247 247 247 249 250 252 255 254 252 252 252 251 252 255 256 257 257 258 261 262 262 264 266 270 273 273 272 271 273 275 277 277 277 278 278 278 276 274 272 274 274 272 272 272 270 272 277 283 284 280 281 286 289 288 288 287 283 277 269 265 265 265 266 265
254 255 255 256 257 256 256 254 253 254 254 253 253 254 254 252 251 250 249 249 248 249 249 248 249 248 248 251 252 252 252 252 250 249 249 251 252 254 256 259 261 264 267 270 272 272 273 273 273 274 275 276 277 276 276 278 279 279 280 280 278 277 277 279 278 276 277 281 285 286 284 282 284 286 286 287 287 285 283 278 273 269 269 269 269
255 256 257 259 259 258 258 256 251 250 251 250 250 252 252 251 250 249 249 250 250 251 252 251 251 250 250 251 252 252 254 255 253 252 251 253 254 255 256 258 261 265 269 271 270 269 270 270 270 271 272 273 275 276 277 278 279 281 283 284 283 283 285 287 287 287 288 288 287 289 288 285 284 285 286 287 286 285 284 283 282 278 275 273 271
255 256 256 258 258 257 257 256 252 251 250 246 242 245 247 248 248 248 249 250 250 252 256 257 257 255 254 255 254 253 254 256 256 256 256 257 258 259 259 261 263 264 266 267 269 270 271 272 272 272 272 271 272 275 277 278 278 280 281 282 284 288 291 291 291 292 293 291 289 289 288 285 283 285 286 287 287 286 283 283 285 284 283 280 277
254 255 255 254 254 254 254 254 255 255 253 247 242 240 241 242 243 243 246 248 249 250 255 259 258 255 252 253 254 254 254 256 257 258 258 258 259 260 261 262 262 263 265 268 270 272 273 275 277 276 275 274 273 273 274 276 278 279 279 280 283 286 289 289 288 288 287 286 286 288 287 284 283 284 285 285 287 288 286 284 284 285 284 283 281
253 253 254 254 253 254 252 253 257 258 256 253 250 246 242 241 241 240 241 243 244 244 247 250 252 254 255 255 255 255 254 254 255 256 257 257 257 259 260 261 262 263 265 267 270 271 272 273 274 274 274 276 276 276 277 278 279 280 280 281 281 281 281 283 284 284 283 282 283 284 285 284 284 285 285 283 284 285 287 287 286 285 284 284 283
Height
5930 5931 5931 5931 5931 5931 5932 5934 5936 5937 5938 5940 5941 5941 5942 5943 5945 5945 5946 5946 5947 5947 5948 5948 5948 5949 5949 5949 5949 5949 5949 5949 5950 5950 5950 5950 5951 5951 5952 5952 5953 5953 5953 5953 5953 5952 5952 5951 5950 5949 5948 5947 5946 5944 5943 5941 5940 5938 5936 5934 5931 5929 5927 5925 5923 5920 5917 5914 5910 5906 5902 5899 5896 5894 5890 5886 5882 5880 5877 5872 5868 5863 5858 5854 5850
5932 5933 5934 5934 5934 5935 5936 5938 5939 5940 5941 5942 5943 5943 5944 5945 5946 5946 5947 5948 5948 5948 5949 5949 5949 5950 5950 5950 5950 5950 5950 5951 5951 5951 5951 5952 5952 5953 5953 5953 5954 5954 5955 5955 5954 5954 5953 5952 5952 5951 5950 5949 5947 5946 5945 5944 5942 5940 5938 5936 5934 5932 5929 5927 5925 5922 5920 5917 5914 5910 5906 5902 5899 5896 5892 5889 5886 5882 5880 5876 5872 5868 5863 5860 5857
5933 5934 5935 5936 5937 5938 5939 5940 5941 5942 5943 5944 5944 5945 5945 5946 5947 5948 5949 5950 5949 5949 5949 5950 5950 5951 5951 5951 5951 5951 5951 5952 5952 5952 5952 5953 5953 5954 5954 5955 5955 5956 5956 5956 5956 5955 5955 5954 5953 5952 5951 5950 5949 5948 5947 5946 5944 5943 5941 5939 5936 5934 5932 5930 5927 5925 5922 5920 5917 5913 5910 5906 5903 5900 5896 5893 5889 5886 5884 5881 5876 5872 5869 5866 5864
5935 5936 5937 5938 5939 5940 5941 5942 5943 5943 5944 5945 5945 5946 5947 5948 5949 5950 5951 5951 5950 5950 5950 5951 5951 5952 5952 5952 5952 5952 5952 5953 5954 5954 5954 5954 5955 5955 5956 5956 5957 5957 5957 5957 5957 5957 5956 5956 5955 5954 5953 5952 5951 5950 5949 5947 5946 5945 5943 5941 5939 5937 5934 5932 5930 5927 5924 5922 5919 5916 5913 5910 5907 5903 5900 5897 5892 5889 5887 5884 5880 5877 5874 5872 5870
5937 5938 5938 5939 5940 5941 5942 5943 5944 5945 5945 5946 5947 5947 5949 5950 5951 5952 5952 5951 5951 5951 5951 5952 5952 5953 5953 5953 5952 5953 5954 5954 5955 5955 5956 5956 5956 5957 5957 5957 5958 5958 5958 5958 5958 5958 5958 5957 5957 5956 5955 5954 5953 5952 5950 5949 5948 5947 5945 5943 5941 5939 5937 5935 5932 5930 5927 5924 5922 5919 5916 5913 5910 5907 5903 5900 5896 5893 5891 5888 5885 5882 5879 5877 5875
5939 5940 5941 5942 5942 5943 5944 5945 5946 5947 5947 5948 5949 5950 5951 5952 5952 5952 5952 5952 5951 5951 5952 5952 5953 5953 5954 5954 5954 5954 5955 5956 5956 5956 5957 5957 5957 5958 5958 5958 5959 5959 5959 5959 5959 5959 5959 5958 5958 5957 5957 5956 5955 5954 5952 5951 5950 5948 5947 5945 5943 5942 5940 5937 5935 5933 5930 5927 5925 5922 5920 5917 5914 5910 5906 5903 5900 5897 5895 5892 5890 5887 5885 5882 5881
5941 5942 5943 5944 5945 5945 5946 5947 5948 5949 5949 5950 5951 5953 5953 5953 5953 5953 5952 5953 5953 5953 5953 5953 5954 5954 5954 5955 5955 5955 5956 5957 5957 5957 5958 5958 5958 5959 5959 5959 5959 5959 5959 5959 5959 5959 5959 5959 5959 5959 5958 5957 5956 5955 5954 5953 5951 5950 5948 5947 5945 5943 5942 5940 5937 5935 5933 5930 5928 5926 5923 5921 5918 5914 5910 5907 5904 5902 5899 5896 5894 5892 5890 5888 5886
5943 5944 5945 5946 5947 5948 5948 5949 5950 5950 5951 5952 5953 5953 5953 5953 5954 5954 5953 5953 5954 5954 5953 5954 5954 5955 5955 5956 5956 5956 5957 5957 5958 5959 5959 5959 5959 5959 5960 5960 5960 5959 5959 5960 5959 5959 5960 5960 5960 5959 5959 5958 5958 5957 5955 5954 5953 5952 5950 5948 5947 5945 5943 5942 5940 5938 5936 5933 5931 5928 5926 5924 5921 5918 5914 5911 5908 5905 5903 5901 5898 5896 5894 5893 5891
5946 5947 5947 5949 5950 5950 5950 5951 5951 5951 5952 5953 5953 5953 5954 5954 5954 5955 5954 5954 5955 5955 5954 5955 5955 5955 5956 5956 5957 5957 5958 5958 5959 5960 5960 5960 5960 5960 5961 5961 5960 5960 5960 5961 5961 5960 5960 5960 5960 5960 5960 5960 5959 5958 5957 5956 5955 5953 5952 5950 5948 5947 5945 5943 5942 5940 5938 5936 5934 5931 5929 5926 5924 5921 5918 5915 5912 5909 5907 5905 5903 5901 5899 5897 5896
5948 5949 5950 5950 5951 5951 5952 5952 5952 5952 5953 5954 5954 5954 5955 5955 5955 5955 5955 5955 5955 5956 5955 5955 5956 5956 5957 5957 5958 5958 5959 5959 5960 5961 5961 5961 5961 5962 5962 5962 5961 5961 5962 5962 5962 5961 5961 5961 5960 5960 5961 5960 5960 5959 5958 5957 5956 5955 5953 5952 5950 5948 5947 5945 5943 5941 5940 5938 5936 5934 5932 5929 5927 5924 5922 5919 5917 5914 5912 5910 5908 5905 5903 5902 5900
5950 5951 5951 5952 5952 5952 5953 5953 5953 5954 5955 5956 5956 5956 5956 5956 5956 5955 5956 5955 5956 5956 5956 5956 5957 5957 5957 5958 5958 5958 5959 5959 5960 5961 5962 5962 5963 5963 5962 5963 5963 5962 5963 5962 5962 5962 5962 5960 5960 5960 5961 5961 5960 5960 5959 5958 5957 5956 5955 5954 5952 5950 5949 5947 5945 5943 5942 5940 5938 5937 5934 5932 5930 5928 5926 5923 5920 5918 5916 5914 5912 5910 5908 5906 5904
5951 5952 5953 5953 5953 5953 5954 5954 5955 5955 5956 5957 5956 5956 5956 5956 5956 5956 5956 5956 5956 5957 5957 5957 5958 5958 5958 5958 5958 5959 5959 5960 5961 5962 5962 5963 5964 5964 5963 5964 5965 5964 5963 5962 5962 5962 5962 5961 5960 5960 5960 5960 5960 5960 5960 5959 5958 5957 5956 5955 5954 5952 5951 5949 5947 5945 5944 5942 5940 5939 5937 5935 5933 5931 5929 5927 5924 5922 5920 5918 5916 5914 5912 5910 5909
5952 5953 5954 5954 5954 5954 5954 5955 5955 5956 5956 5957 5957 5957 5957 5956 5956 5956 5956 5957 5957 5958 5958 5958 5959 5959 5959 5959 5959 5960 5961 5961 5962 5962 5963 5963 5964 5965 5965 5965 5965 5965 5965 5964 5963 5963 5964 5964 5962 5960 5958 5959 5960 5960 5960 5959 5959 5958 5957 5956 5955 5954 5952 5950 5949 5947 5945 5944 5942 5941 5939 5937 5935 5933 5932 5930 5928 5926 5924 5921 5919 5918 5916 5914 5913
5953 5954 5954 5955 5955 5955 5955 5955 5956 5956 5956 5956 5956 5957 5957 5957 5957 5957 5957 5957 5958 5958 5959 5959 5960 5960 5960 5959 5960 5961 5962 5962 5962 5963 5963 5964 5964 5966 5966 5966 5966 5966 5966 5965 5965 5966 5966 5965 5964 5962 5960 5960 5960 5960 5960 5960 5959 5958 5957 5956 5955 5954 5953 5952 5950 5949 5947 5945 5944 5942 5941 5939 5938 5936 5934 5932 5931 5929 5927 5925 5923 5921 5920 5918 5917
5954 5954 5955 5955 5956 5956 5956 5956 5956 5956 5956 5956 5956 5957 5957 5957 5957 5958 5958 5959 5959 5959 5960 5960 5961 5961 5961 5961 5961 5962 5962 5962 5963 5963 5964 5965 5965 5966 5966 5966 5966 5966 5967 5967 5967 5968 5966 5964 5964 5964 5964 5965 5964 5962 5961 5960 5959 5958 5957 5956 5956 5955 5954 5953 5951 5950 5948 5947 5945 5944 5942 5941 5940 5938 5937 5935 5933 5932 5930 5929 5927 5925 5924 5922 5920
5955 5955 5956 5956 5957 5957 5957 5957 5957 5957 5957 5957 5957 5957 5958 5958 5958 5959 5959 5960 5960 5960 5961 5961 5962 5962 5962 5962 5962 5962 5963 5963 5963 5964 5964 5965 5966 5966 5967 5967 5967 5966 5967 5967 5967 5967 5966 5964 5965 5967 5968 5968 5967 5964 5962 5961 5959 5959 5958 5957 5956 5956 5955 5954 5952 5951 5949 5948 5946 5945 5944 5942 5941 5940 5939 5937 5936 5934 5933 5932 5930 5928 5927 5925 5924
5956 5956 5957 5957 5957 5957 5957 5958 5957 5957 5957 5957 5958 5958 5959 5959 5959 5960 5960 5960 5961 5961 5962 5962 5963 5963 5963 5964 5964 5963 5964 5964 5964 5965 5966 5966 5967 5967 5968 5968 5968 5968 5968 5967 5966 5966 5965 5965 5966 5968 5968 5967 5967 5965 5963 5961 5960 5959 5958 5957 5956 5956 5955 5955 5953 5952 5950 5949 5947 5946 5945 5944 5943 5941 5940 5939 5938 5937 5935 5934 5933 5931 5930 5928 5927
5956 5957 5957 5957 5958 5958 5958 5958 5958 5958 5958 5958 5959 5959 5960 5960 5961 5961 5961 5961 5962 5962 5963 5963 5963 5964 5965 5965 5965 5965 5964 5965 5965 5966 5967 5967 5968 5968 5969 5969 5968 5969 5969 5967 5967 5966 5966 5966 5967 5968 5967 5966 5966 5966 5965 5963 5961 5960 5958 5957 5956 5956 5956 5955 5954 5953 5952 5950 5949 5947 5946 5945 5944 5943 5942 5941 5939 5938 5937 5936 5935 5933 5932 5931 5929
5957 5957 5957 5958 5958 5958 5958 5958 5959 5959 5959 5960 5960 5960 5961 5961 5962 5962 5962 5962 5963 5963 5964 5964 5964 5965 5965 5966 5966 5966 5966 5966 5966 5967 5967 5968 5969 5969 5969 5970 5969 5969 5969 5968 5967 5967 5966 5966 5967 5967 5967 5966 5966 5967 5967 5965 5963 5962 5959 5957 5956 5956 5956 5955 5955 5954 5952 5951 5950 5948 5947 5946 5945 5944 5943 5942 5941 5940 5939 5938 5937 5936 5934 5933 5932
5957 5957 5957 5958 5958 5958 5959 5959 5959 5960 5960 5961 5961 5961 5962 5962 5963 5963 5963 5963 5964 5964 5964 5965 5965 5966 5966 5967 5967 5967 5967 5967 5968 5968 5968 5969 5969 5969 5969 5970 5970 5970 5970 5969 5968 5968 5967 5966 5967 5968 5967 5967 5967 5966 5966 5965 5964 5963 5960 5957 5956 5956 5956 5956 5955 5954 5953 5952 5951 5949 5948 5947 5946 5945 5944 5943 5942 5942 5941 5940 5938 5937 5936 5935 5934
5957 5958 5958 5958 5958 5959 5959 5959 5960 5960 5961 5961 5962 5962 5963 5963 5963 5964 5964 5964 5964 5965 5965 5965 5966 5966 5967 5967 5968 5968 5968 5969 5969 5969 5969 5969 5969 5969 5970 5970 5970 5970 5970 5969 5969 5969 5967 5965 5966 5967 5966 5965 5966 5965 5965 5965 5963 5962 5962 5959 5957 5957 5956 5956 5956 5955 5954 5953 5952 5950 5949 5948 5947 5946 5945 5944 5943 5943 5942 5941 5940 5939 5938 5937 5936
5957 5958 5958 5958 5959 5959 5960 5960 5960 5961 5961 5962 5963 5963 5963 5964 5964 5965 5965 5965 5965 5965 5966 5966 5966 5967 5967 5968 5968 5969 5969 5969 5969 5969 5969 5969 5969 5969 5969 5969 5970 5970 5969 5969 5968 5968 5967 5965 5966 5967 5965 5965 5965 5965 5965 5965 5963 5962 5963 5960 5958 5957 5957 5957 5956 5956 5955 5954 5952 5951 5950 5950 5948 5947 5946 5945 5945 5944 5943 5942 5942 5941 5940 5939 5938
5957 5958 5958 5959 5959 5960 5960 5960 5961 5961 5962 5962 5963 5964 5964 5964 5965 5965 5965 5966 5966 5966 5966 5966 5967 5967 5968 5968 5969 5969 5969 5969 5969 5969 5970 5969 5969 5968 5969 5969 5969 5969 5968 5968 5968 5968 5966 5965 5965 5966 5966 5965 5966 5966 5965 5965 5964 5963 5963 5960 5958 5957 5957 5957 5956 5956 5955 5954 5953 5952 5951 5951 5950 5949 5948 5947 5946 5945 5944 5944 5943 5942 5941 5940 5940
5957 5958 5958 5959 5959 5960 5960 5961 5961 5962 5962 5963 5964 5964 5964 5965 5965 5965 5966 5966 5967 5966 5967 5967 5967 5968 5968 5969 5969 5969 5969 5970 5970 5970 5970 5970 5969 5969 5969 5969 5968 5968 5969 5968 5968 5968 5966 5965 5965 5966 5965 5964 5965 5966 5965 5964 5963 5962 5962 5960 5959 5958 5957 5957 5957 5956 5956 5955 5954 5953 5952 5952 5951 5950 5949 5948 5947 5946 5945 5945 5944 5943 5943 5942 5941
5958 5958 5958 5959 5959 5960 5961 5961 5962 5962 5963 5963 5964 5964 5965 5965 5965 5966 5966 5967 5967 5967 5967 5968 5968 5968 5969 5969 5969 5970 5970 5970 5970 5970 5970 5970 5969 5969 5970 5969 5969 5969 5970 5969 5968 5968 5966 5966 5966 5966 5966 5965 5964 5964 5964 5963 5962 5961 5961 5961 5959 5959 5958 5958 5957 5957 5956 5956 5955 5954 5953 5953 5952 5951 5951 5949 5948 5947 5946 5946 5945 5944 5944 5943 5942
5958 5958 5958 5959 5959 5960 5961 5962 5962 5963 5963 5963 5964 5964 5965 5966 5966 5966 5967 5967 5967 5967 5968 5968 5969 5969 5969 5969 5969 5970 5970 5970 5970 5970 5970 5970 5970 5970 5970 5969 5969 5970 5970 5969 5968 5968 5966 5966 5967 5968 5968 5967 5965 5964 5964 5964 5963 5962 5962 5961 5960 5959 5959 5958 5958 5957 5957 5956 5956 5955 5954 5954 5953 5952 5952 5951 5950 5949 5948 5947 5946 5945 5944 5944 5943
5958 5958 5958 5959 5959 5960 5961 5961 5962 5963 5963 5964 5964 5965 5965 5966 5966 5967 5967 5967 5967 5968 5968 5968 5969 5969 5970 5970 5970 5970 5970 5970 5970 5971 5970 5970 5971 5971 5970 5970 5969 5970 5970 5969 5969 5968 5966 5965 5967 5969 5968 5967 5967 5966 5965 5964 5963 5963 5962 5961 5960 5959 5959 5959 5958 5958 5957 5957 5956 5955 5955 5954 5954 5953 5953 5952 5951 5950 5949 5948 5947 5946 5945 5945 5944
5957 5958 5958 5959 5959 5959 5960 5961 5962 5962 5963 5963 5964 5964 5965 5965 5966 5967 5967 5967 5967 5968 5968 5968 5969 5969 5970 5970 5970 5970 5971 5970 5970 5971 5971 5971 5971 5971 5971 5970 5970 5970 5970 5970 5969 5968 5967 5965 5966 5967 5966 5966 5966 5966 5965 5964 5963 5963 5962 5960 5959 5960 5960 5959 5959 5958 5958 5957 5957 5956 5955 5955 5955 5954 5954 5953 5952 5951 5950 5949 5948 5947 5946 5946 5945
5957 5957 5958 5958 5959 5959 5960 5960 5961 5962 5962 5963 5963 5964 5965 5965 5966 5966 5967 5967 5967 5968 5968 5968 5969 5969 5969 5970 5970 5971 5971 5971 5971 5971 5971 5971 5971 5971 5971 5971 5971 5970 5970 5970 5969 5968 5967 5966 5966 5965 5965 5966 5965 5964 5964 5964 5964 5963 5961 5960 5960 5960 5960 5960 5959 5959 5958 5957 5957 5956 5956 5956 5955 5955 5954 5954 5953 5952 5951 5950 5949 5948 5947 5947 5946
5957 5957 5957 5958 5958 5959 5959 5960 5961 5961 5962 5962 5963 5964 5964 5965 5965 5966 5967 5967 5967 5968 5968 5968 5968 5969 5969 5970 5970 5971 5971 5971 5971 5971 5971 5971 5971 5971 5971 5971 5971 5970 5970 5969 5968 5967 5967 5966 5966 5965 5965 5964 5963 5963 5963 5963 5963 5963 5961 5961 5961 5961 5961 5960 5960 5959 5958 5957 5957 5956 5956 5956 5955 5955 5955 5954 5954 5953 5952 5952 5951 5950 5949 5948 5947
5956 5957 5957 5957 5958 5958 5959 5960 5960 5961 5961 5962 5962 5963 5964 5964 5965 5966 5966 5967 5967 5968 5968 5968 5968 5968 5969 5969 5970 5970 5971 5971 5971 5971 5971 5971 5971 5971 5971 5971 5970 5970 5970 5969 5968 5968 5967 5967 5966 5965 5964 5964 5963 5963 5963 5963 5963 5963 5963 5962 5962 5962 5961 5960 5960 5959 5958 5958 5957 5957 5956 5956 5955 5955 5955 5955 5954 5954 5953 5952 5952 5951 5950 5949 5948
5955 5956 5956 5957 5958 5958 5958 5959 5960 5961 5961 5962 5962 5963 5963 5964 5965 5965 5966 5966 5967 5967 5967 5967 5968 5968 5968 5969 5969 5970 5970 5970 5971 5971 5971 5971 5971 5971 5970 5970 5970 5970 5970 5969 5969 5968 5968 5967 5966 5966 5965 5964 5964 5963 5963 5963 5962 5962 5963 5962 5962 5962 5961 5960 5959 5959 5958 5958 5957 5957 5956 5956 5955 5955 5955 5955 5954 5954 5953 5953 5952 5952 5951 5950 5949
5955 5955 5955 5956 5957 5958 5958 5959 5960 5960 5961 5961 5962 5962 5963 5963 5964 5965 5965 5965 5965 5966 5967 5967 5967 5967 5968 5968 5969 5969 5970 5970 5970 5970 5970 5970 5970 5970 5970 5970 5969 5969 5969 5969 5969 5969 5968 5968 5967 5966 5966 5965 5964 5964 5963 5962 5962 5962 5962 5961 5961 5960 5959 5959 5959 5958 5958 5958 5957 5957 5956 5956 5955 5955 5955 5955 5954 5954 5954 5953 5953 5952 5952 5951 5950
5954 5954 5954 5955 5956 5957 5957 5958 5959 5960 5960 5961 5961 5962 5963 5963 5964 5964 5965 5964 5965 5966 5966 5966 5967 5967 5967 5968 5968 5969 5969 5969 5970 5970 5969 5969 5969 5969 5969 5969 5969 5969 5969 5968 5968 5968 5968 5968 5967 5967 5966 5966 5965 5964 5963 5963 5962 5962 5961 5961 5960 5959 5959 5959 5959 5958 5958 5958 5957 5957 5956 5956 5955 5955 5954 5954 5954 5954 5954 5953 5953 5953 5952 5951 5951
5952 5953 5953 5954 5955 5955 5956 5957 5958 5959 5959 5960 5961 5962 5963 5963 5963 5964 5964 5964 5964 5965 5965 5966 5966 5966 5967 5967 5968 5968 5968 5969 5969 5969 5969 5969 5969 5969 5968 5968 5968 5968 5968 5968 5967 5967 5967 5967 5967 5966 5966 5966 5965 5964 5964 5963 5963 5962 5961 5961 5960 5959 5959 5959 5959 5958 5958 5958 5957 5957 5956 5956 5955 5955 5955 5954 5954 5954 5953 5953 5953 5953 5952 5952 5951
5951 5952 5952 5953 5953 5954 5955 5956 5957 5957 5958 5959 5960 5961 5962 5962 5963 5963 5964 5964 5964 5964 5965 5965 5965 5966 5966 5967 5967 5967 5968 5968 5968 5968 5968 5968 5968 5968 5968 5968 5968 5967 5967 5967 5967 5967 5967 5967 5966 5966 5966 5966 5965 5965 5964 5964 5963 5963 5962 5961 5961 5960 5960 5959 5958 5958 5958 5958 5958 5958 5957 5956 5956 5955 5955 5954 5954 5954 5953 5953 5953 5952 5952 5952 5951
5950 5950 5951 5952 5952 5953 5953 5954 5955 5956 5957 5958 5959 5959 5960 5961 5962 5962 5963 5963 5964 5964 5964 5964 5965 5965 5966 5966 5967 5967 5967 5967 5967 5967 5967 5967 5967 5967 5967 5967 5967 5967 5966 5966 5966 5966 5966 5966 5966 5966 5965 5965 5965 5965 5964 5964 5964 5963 5962 5962 5961 5960 5960 5960 5958 5958 5958 5959 5958 5958 5957 5957 5956 5955 5955 5954 5954 5954 5953 5953 5953 5952 5952 5952 5951
5948 5949 5949 5950 5951 5952 5952 5953 5954 5955 5956 5957 5957 5958 5959 5959 5960 5961 5961 5962 5962 5963 5963 5963 5964 5964 5965 5965 5966 5966 5966 5966 5966 5966 5966 5966 5966 5966 5966 5966 5966 5966 5966 5966 5966 5966 5966 5966 5965 5965 5965 5965 5964 5964 5964 5963 5963 5962 5962 5961 5961 5960 5959 5959 5958 5958 5958 5958 5958 5958 5957 5957 5956 5955 5955 5954 5954 5954 5953 5953 5952 5952 5952 5951 5951
5945 5946 5947 5948 5949 5950 5951 5952 5953 5953 5954 5955 5956 5957 5957 5958 5958 5959 5960 5960 5961 5961 5962 5962 5963 5963 5964 5964 5965 5965 5965 5965 5965 5965 5965 5966 5966 5966 5966 5965 5965 5965 5965 5965 5965 5965 5965 5965 5965 5964 5964 5964 5963 5963 5963 5962 5962 5961 5961 5960 5960 5959 5958 5958 5958 5957 5957 5957 5956 5956 5956 5956 5955 5955 5954 5954 5953 5953 5953 5952 5952 5952 5951 5951 5951
5943 5944 5945 5946 5947 5948 5949 5950 5951 5952 5953 5954 5954 5955 5956 5956 5956 5957 5957 5958 5959 5959 5960 5961 5961 5962 5962 5962 5963 5964 5964 5964 5964 5964 5964 5964 5964 5965 5965 5965 5965 5964 5964 5964 5964 5964 5963 5963 5963 5963 5963 5963 5962 5962 5961 5961 5961 5960 5960 5959 5959 5958 5958 5957 5957 5956 5956 5955 5955 5954 5954 5954 5954 5953 5953 5953 5953 5952 5952 5952 5952 5951 5951 5951 5950
5940 5941 5942 5944 5945 5946 5947 5948 5949 5950 5951 5952 5953 5953 5954 5954 5954 5955 5955 5956 5957 5957 5958 5959 5959 5960 5961 5961 5962 5962 5962 5962 5962 5962 5963 5963 5963 5963 5963 5963 5963 5963 5963 5963 5962 5962 5962 5962 5962 5961 5961 5961 5961 5960 5960 5960 5959 5959 5958 5958 5958 5957 5956 5956 5955 5955 5955 5954 5953 5953 5952 5952 5952 5952 5951 5951 5951 5951 5951 5951 5950 5950 5950 5950 5949
5938 5939 5940 5941 5942 5943 5944 5946 5947 5948 5949 5950 5950 5950 5951 5952 5953 5953 5954 5954 5954 5955 5956 5957 5957 5958 5959 5960 5960 5961 5961 5960 5960 5960 5961 5961 5961 5962 5962 5962 5962 5962 5962 5961 5961 5961 5960 5960 5960 5959 5959 5959 5959 5958 5958 5958 5958 5957 5956 5956 5956 5955 5955 5954 5953 5952 5952 5952 5952 5951 5950 5950 5950 5950 5950 5950 5950 5950 5949 5949 5949 5948 5948 5948 5947
5935 5936 5937 5938 5939 5941 5942 5943 5945 5946 5946 5947 5947 5947 5948 5950 5951 5951 5952 5952 5952 5953 5954 5954 5955 5956 5957 5958 5958 5959 5959 5959 5959 5958 5958 5959 5959 5959 5960 5960 5960 5960 5960 5959 5959 5959 5959 5958 5958 5957 5957 5957 5956 5956 5956 5956 5956 5955 5955 5954 5954 5953 5953 5952 5952 5950 5949 5950 5951 5950 5949 5948 5948 5948 5948 5948 5948 5948 5947 5947 5947 5946 5946 5946 5946
5932 5933 5934 5935 5936 5938 5939 5940 5941 5942 5943 5943 5944 5945 5945 5947 5948 5948 5949 5950 5950 5951 5952 5952 5953 5954 5955 5955 5956 5956 5957 5957 5957 5956 5956 5956 5957 5957 5957 5957 5957 5957 5957 5958 5957 5957 5957 5957 5956 5955 5955 5955 5955 5954 5954 5954 5954 5953 5953 5952 5952 5951 5951 5950 5950 5949 5947 5947 5948 5949 5948 5946 5946 5946 5946 5946 5946 5946 5945 5945 5944 5944 5944 5944 5944
5930 5931 5932 5932 5933 5934 5936 5937 5937 5938 5939 5940 5940 5941 5942 5943 5944 5945 5946 5947 5947 5948 5949 5950 5951 5952 5952 5953 5954 5954 5954 5954 5955 5955 5954 5954 5955 5955 5955 5955 5955 5955 5955 5955 5956 5955 5955 5955 5954 5953 5953 5953 5953 5952 5952 5952 5952 5952 5951 5950 5949 5949 5949 5948 5948 5947 5946 5945 5946 5947 5946 5945 5943 5944 5944 5943 5943 5943 5943 5942 5942 5942 5942 5942 5942
5928 5929 5929 5929 5930 5931 5932 5932 5932 5933 5934 5935 5936 5937 5938 5939 5941 5941 5942 5944 5944 5945 5946 5947 5948 5950 5950 5951 5951 5952 5952 5952 5952 5952 5952 5953 5953 5953 5953 5953 5953 5953 5953 5953 5953 5953 5953 5952 5952 5951 5951 5951 5951 5950 5949 5949 5949 5949 5949 5948 5947 5947 5947 5946 5946 5945 5944 5943 5944 5945 5945 5943 5942 5942 5942 5941 5941 5941 5940 5940 5940 5940 5940 5939 5939
5924 5925 5925 5925 5926 5927 5928 5928 5928 5929 5931 5932 5932 5933 5934 5935 5936 5937 5938 5940 5941 5942 5943 5945 5946 5947 5947 5948 5949 5949 5949 5949 5949 5949 5949 5950 5950 5951 5951 5951 5951 5951 5952 5951 5951 5951 5951 5950 5950 5949 5949 5948 5948 5948 5947 5946 5946 5946 5946 5946 5945 5944 5945 5945 5944 5943 5943 5942 5941 5942 5943 5942 5940 5939 5939 5938 5939 5938 5938 5937 5937 5937 5937 5937 5937
5920 5920 5921 5922 5922 5924 5925 5924 5924 5925 5926 5927 5928 5928 5929 5930 5932 5933 5934 5936 5938 5939 5940 5942 5943 5944 5945 5946 5946 5946 5946 5946 5946 5946 5946 5947 5948 5948 5949 5949 5949 5949 5949 5948 5948 5948 5948 5948 5948 5947 5947 5946 5945 5945 5944 5944 5943 5943 5943 5943 5942 5942 5943 5943 5943 5942 5941 5940 5939 5939 5940 5940 5938 5937 5937 5936 5936 5936 5935 5934 5934 5934 5934 5934 5934
5915 5916 5917 5918 5919 5921 5921 5921 5920 5919 5920 5921 5922 5922 5924 5925 5927 5928 5930 5932 5934 5935 5937 5939 5940 5941 5942 5942 5942 5942 5943 5943 5943 5943 5944 5945 5945 5946 5946 5946 5946 5946 5946 5945 5945 5945 5945 5945 5945 5944 5944 5944 5943 5942 5941 5941 5940 5941 5941 5940 5940 5940 5941 5941 5940 5940 5939 5938 5937 5937 5937 5936 5935 5934 5935 5935 5934 5933 5932 5931 5930 5930 5930 5930 5930
5910 5910 5912 5914 5915 5915 5916 5916 5915 5915 5915 5916 5916 5917 5919 5920 5921 5923 5926 5929 5930 5933 5935 5935 5935 5937 5938 5936 5936 5938 5939 5940 5940 5940 5940 5941 5942 5942 5943 5943 5943 5943 5943 5942 5942 5942 5942 5942 5941 5941 5940 5940 5940 5939 5939 5937 5937 5937 5937 5938 5938 5938 5937 5936 5936 5936 5936 5934 5933 5933 5934 5933 5931 5930 5931 5932 5932 5930 5929 5928 5927 5926 5926 5926 5926
5906 5906 5907 5909 5910 5910 5910 5909 5909 5910 5911 5911 5912 5915 5916 5916 5917 5919 5921 5924 5926 5929 5930 5929 5930 5933 5933 5931 5932 5934 5934 5935 5935 5935 5935 5936 5937 5938 5939 5939 5939 5939 5939 5939 5938 5939 5939 5939 5939 5938 5937 5936 5936 5935 5935 5934 5933 5933 5934 5934 5935 5935 5934 5933 5932 5932 5932 5931 5929 5930 5930 5929 5928 5927 5927 5928 5929 5928 5925 5924 5924 5923 5922 5922 5922